Weather History for Indian Springs, NV

Change the Weather History Date:

Wednesday, November 6, 2013

  Actual Average (KDRA) Record (KDRA)
Temperature  
Mean Temperature 48 °F -  
Max Temperature 68 °F 63 °F 81 °F (2012)
Min Temperature 29 °F 41 °F 26 °F (2011)
Degree Days  
Heating Degree Days 16    
Moisture  
Dew Point 11 °F    
Average Humidity 25    
Maximum Humidity 36    
Minimum Humidity 12    
Precipitation  
Precipitation 0.00 in - - ()
Sea Level Pressure  
Sea Level Pressure 30.34 in    
Wind  
Wind Speed 2 mph (SSW)    
Max Wind Speed 15 mph    
Max Gust Speed -    
Visibility 10 miles    
Events      
Averages and records for this station are not official NWS values.
T = Trace of Precipitation, MM = Missing Value Source: NWS Daily Summary

Daily Weather History Graph

Daily Weather History Graph

Search for Another Location

Airport:

Trip Planner

Search our weather history database for the weather conditions in past years. The results will help you decide how hot, cold, wet, or windy it might be!

Date:

Astronomy

Nov. 06, 2013 Rise Set
Actual Time 6:11 AM PST 4:40 PM PST
Civil Twilight 5:44 AM PST 5:07 PM PST
Nautical Twilight 5:13 AM PST 5:38 PM PST
Astronomical Twilight 4:43 AM PST 6:08 PM PST
Moon 9:28 AM PST (11/6) 7:51 PM PST (11/6)
Length of Visible Light 11h 23m
Length of Day
10h 29m
Waxing Crescent, 14% of the Moon is Illuminated
Nov 6
Waxing Crescent
Nov 9
First Quarter
Nov 17
Full
Nov 25
Last Quarter
Dec 2
New

Hourly Weather History & Observations

Time (PST) Temp. Windchill Dew Point Humidity Pressure Visibility Wind Dir Wind Speed Gust Speed Precip Events Conditions
12:58 AM 33.4 °F - 4.1 °F 29% 30.31 in 10.0 mi Calm Calm - N/A   Clear
1:58 AM 34.5 °F - 4.6 °F 29% 30.32 in 10.0 mi Calm Calm - N/A   Clear
2:58 AM 31.1 °F - 4.6 °F 33% 30.33 in 10.0 mi SW 2.3 mph - N/A   Clear
3:58 AM 33.3 °F - 5.2 °F 31% 30.33 in 10.0 mi SW 1.2 mph - N/A   Clear
4:58 AM 32.0 °F - 4.8 °F 32% 30.35 in 10.0 mi Calm Calm - N/A   Clear
5:58 AM 29.7 °F - 5.2 °F 35% 30.36 in 10.0 mi WSW 1.2 mph - N/A   Clear
6:58 AM 30.7 °F - 5.9 °F 35% 30.38 in 10.0 mi Calm Calm - N/A   Clear
7:58 AM 38.8 °F - 8.1 °F 28% 30.40 in 10.0 mi WNW 2.3 mph - N/A   Clear
8:58 AM 47.3 °F - 9.3 °F 21% 30.40 in 10.0 mi NNE 1.2 mph - N/A   Clear
9:58 AM 50.4 °F - 9.7 °F 19% 30.40 in 10.0 mi Calm Calm - N/A   Clear
10:58 AM 56.8 °F - 9.5 °F 15% 30.39 in 10.0 mi Calm Calm - N/A   Clear
11:58 AM 60.1 °F - 10.2 °F 14% 30.36 in 10.0 mi Variable 2.3 mph - N/A   Clear
12:58 PM 61.9 °F - 10.8 °F 13% 30.34 in 10.0 mi South 2.3 mph - N/A   Clear
1:58 PM 64.6 °F - 11.1 °F 12% 30.32 in 10.0 mi Calm Calm - N/A   Clear
2:58 PM 68.0 °F - 13.5 °F 12% 30.31 in 10.0 mi Calm Calm - N/A   Clear
3:58 PM 66.7 °F - 16.0 °F 14% 30.30 in 10.0 mi NW 2.3 mph - N/A   Clear
4:58 PM 61.7 °F - 18.1 °F 19% 30.30 in 10.0 mi South 2.3 mph - N/A   Clear
5:58 PM 56.7 °F - 13.8 °F 18% 30.31 in 10.0 mi East 15.0 mph - N/A   Clear
6:58 PM 54.9 °F - 13.5 °F 19% 30.31 in 10.0 mi East 12.7 mph - N/A   Clear
7:58 PM 52.3 °F - 14.7 °F 22% 30.33 in 10.0 mi South 2.3 mph - N/A   Clear
8:58 PM 49.6 °F - 14.5 °F 25% 30.34 in 10.0 mi WSW 3.5 mph - N/A   Clear
9:58 PM 44.4 °F - 12.7 °F 28% 30.34 in 10.0 mi Calm Calm - N/A   Clear
10:58 PM 42.8 °F - 14.2 °F 31% 30.33 in 10.0 mi ENE 2.3 mph - N/A   Clear
11:46 PM 41.0 °F 38.0 °F 15.8 °F 36% 30.33 in 10.0 mi West 4.6 mph - N/A   Clear
11:55 PM 41.0 °F - 15.8 °F 36% 30.32 in 10.0 mi SE 2.3 mph - N/A   Clear
11:58 PM 41.0 °F - 15.8 °F 36% 30.32 in 10.0 mi ESE 2.3 mph - 0.00 in   Clear